Weather History for KPGD - October, 2012

Change the Weather History Date:

Friday, October 12, 2012

  Actual Average Record
Temperature  
Mean Temperature 77 °F -  
Max Temperature 87 °F 85 °F 91 °F (1998)
Min Temperature 68 °F 65 °F 62 °F (2000)
Cooling Degree Days 12    
Growing Degree Days 27 (Base 50)    
Moisture  
Dew Point 64 °F    
Average Humidity 70    
Maximum Humidity 90    
Minimum Humidity 44    
Precipitation  
Precipitation 0.00 in - - ()
Sea Level Pressure  
Sea Level Pressure 30.15 in    
Wind  
Wind Speed 9 mph (NE)    
Max Wind Speed 15 mph    
Max Gust Speed 24 mph    
Visibility 10 miles    
Events      
Averages and records for this station are not official NWS values.
T = Trace of Precipitation, MM = Missing Value Source: NWS Daily Summary

Daily Weather History Graph

Daily Weather History Graph

Search for Another Location

Airport or City:

Trip Planner

Search our weather history database for the weather conditions in past years. The results will help you decide how hot, cold, wet, or windy it might be!

Date:

Astronomy

Oct. 12, 2012 Rise Set
Actual Time 7:26 AM EDT 7:02 PM EDT
Civil Twilight 7:02 AM EDT 7:25 PM EDT
Nautical Twilight 6:35 AM EDT 7:52 PM EDT
Astronomical Twilight 6:08 AM EDT 8:19 PM EDT
Moon 4:23 AM EDT (10/12) 4:59 PM EDT (10/12)
Length of Visible Light 12h 22m
Length of Day
11h 35m
Waning Crescent, 11% of the Moon is Illuminated
Oct 12
Waning Crescent
Oct 15
New
Oct 21
First Quarter
Oct 29
Full
Nov 6
Last Quarter

Hourly Weather History & Observations

Time (EDT) Temp. Heat Index Dew Point Humidity Pressure Visibility Wind Dir Wind Speed Gust Speed Precip Events Conditions
12:53 AM 71.1 °F - 66.9 °F 87% 30.15 in 10.0 mi NE 6.9 mph - N/A   Clear
2:53 AM 70.0 °F - 66.0 °F 87% 30.13 in 10.0 mi NNE 9.2 mph - N/A   Clear
4:53 AM 69.1 °F - 64.9 °F 87% 30.13 in 10.0 mi NNE 5.8 mph - N/A   Clear
5:53 AM 68.0 °F - 64.9 °F 90% 30.14 in 10.0 mi NNE 5.8 mph - N/A   Clear
6:53 AM 68.0 °F - 64.9 °F 90% 30.16 in 8.0 mi NNE 6.9 mph - N/A   Clear
7:53 AM 69.1 °F - 64.9 °F 87% 30.17 in 9.0 mi NNE 10.4 mph - N/A   Clear
8:53 AM 72.0 °F - 66.0 °F 81% 30.18 in 10.0 mi NNE 11.5 mph - N/A   Clear
10:53 AM 81.0 °F 83.0 °F 66.0 °F 60% 30.19 in 10.0 mi NE 12.7 mph - N/A   Clear
12:53 PM 84.9 °F 87.1 °F 66.0 °F 53% 30.17 in 10.0 mi NE 12.7 mph 24.2 mph N/A   Scattered Clouds
1:53 PM 84.9 °F 86.1 °F 64.0 °F 49% 30.14 in 10.0 mi ENE 15.0 mph 24.2 mph N/A   Partly Cloudy
2:53 PM 86.0 °F 86.8 °F 63.0 °F 46% 30.12 in 10.0 mi NE 11.5 mph - N/A   Scattered Clouds
3:53 PM 86.0 °F 86.8 °F 63.0 °F 46% 30.11 in 10.0 mi NE 15.0 mph 19.6 mph N/A   Clear
4:53 PM 86.0 °F 86.3 °F 62.1 °F 44% 30.11 in 10.0 mi NE 13.8 mph - N/A   Clear
5:53 PM 84.0 °F 84.5 °F 62.1 °F 47% 30.11 in 10.0 mi NE 11.5 mph 18.4 mph N/A   Clear
6:53 PM 80.1 °F 81.9 °F 64.9 °F 60% 30.12 in 10.0 mi NE 6.9 mph - N/A   Clear
7:53 PM 73.9 °F - 64.9 °F 73% 30.14 in 10.0 mi NE 5.8 mph - N/A   Clear
8:53 PM 73.0 °F - 64.9 °F 76% 30.15 in 10.0 mi ENE 5.8 mph - N/A   Clear
9:53 PM 71.1 °F - 64.0 °F 78% 30.18 in 10.0 mi NE 5.8 mph - N/A   Clear
10:53 PM 71.1 °F - 63.0 °F 75% 30.18 in 10.0 mi NE 6.9 mph - N/A   Clear
11:53 PM 69.1 °F - 63.0 °F 81% 30.18 in 10.0 mi NE 6.9 mph - N/A   Clear